This is the latest recevied weather packets stored in our database for station/object SP6PWT-13. If no packets are shown the sender has not sent any weather packets the latest 10 day(s).
| Time | Temp. | Humidity | Pressure | Rain* | Wind** | Luminosity | Snow |
|---|---|---|---|---|---|---|---|
| 1777544128 | 12.22° C | 35% | 1014.6 hPa | 0 mm | - | 477 W/m² | - |
| 1777543828 | 12.78° C | 34% | 1014.5 hPa | 0 mm | - | 729 W/m² | - |
| 1777543527 | 12.22° C | 35% | 1014.7 hPa | 0 mm | - | 734 W/m² | - |
| 1777543227 | 12.22° C | 34% | 1014.7 hPa | 0 mm | - | 709 W/m² | - |
| 1777542927 | 12.22° C | 33% | 1014.6 hPa | 0 mm | - | 683 W/m² | - |
| 1777542626 | 12.22° C | 34% | 1014.8 hPa | 0 mm | - | 690 W/m² | - |
| 1777542325 | 12.22° C | 34% | 1014.7 hPa | 0 mm | - | 648 W/m² | - |
| 1777542025 | 12.22° C | 33% | 1015 hPa | 0 mm | - | 649 W/m² | - |
| 1777541725 | 11.67° C | 34% | 1015 hPa | 0 mm | - | 664 W/m² | - |
| 1777541424 | 11.67° C | 34% | 1014.9 hPa | 0 mm | - | 450 W/m² | - |
| 1777541123 | 11.67° C | 33% | 1015.2 hPa | 0 mm | - | 641 W/m² | - |
| 1777540822 | 11.67° C | 33% | 1015.1 hPa | 0 mm | - | 624 W/m² | - |
| 1777540521 | 11.67° C | 33% | 1015.1 hPa | 0 mm | - | 632 W/m² | - |
| 1777540221 | 11.67° C | 34% | 1015.3 hPa | 0 mm | - | 625 W/m² | - |
| 1777539920 | 11.67° C | 34% | 1015.2 hPa | 0 mm | - | 607 W/m² | - |
| 1777539620 | 11.67° C | 34% | 1015 hPa | 0 mm | - | 593 W/m² | - |
| 1777539320 | 11.11° C | 36% | 1015.2 hPa | 0 mm | - | 580 W/m² | - |
| 1777539019 | 10.56° C | 35% | 1015.3 hPa | 0 mm | - | 582 W/m² | - |
| 1777538719 | 10.56° C | 35% | 1015.2 hPa | 0 mm | - | 571 W/m² | - |
| 1777538418 | 11.11° C | 36% | 1015.2 hPa | 0 mm | - | 560 W/m² | - |
| 1777538118 | 10.56° C | 35% | 1015.4 hPa | 0 mm | - | 560 W/m² | - |
| 1777537817 | 10.56° C | 36% | 1015.4 hPa | 0 mm | - | 546 W/m² | - |
| 1777537507 | 11.11° C | 36% | 1015.3 hPa | 0 mm | - | 537 W/m² | - |
| 1777537206 | 10.56° C | 37% | 1015.3 hPa | 0 mm | - | 528 W/m² | - |
| 1777536905 | 10.56° C | 37% | 1015.4 hPa | 0 mm | - | 528 W/m² | - |
* Rain latest hour (hover to see other rain measurements)
** Current wind speed in m/s (hover to see current wind gust speed)